Ludington, MI

4:49 AM EDT on March 23, 2017 (GMT -0400)
Mason County

Weather History for KLDM - November, 2012

Change the Weather History Date:

Thursday, November 22, 2012

  Actual Average Record
Temperature  
Mean Temperature 53 °F -  
Max Temperature 58 °F 42 °F 63 °F (1990)
Min Temperature 48 °F 28 °F 12 °F (2008)
Degree Days  
Heating Degree Days 12    
Growing Degree Days 3 (Base 50)    
Moisture  
Dew Point 42 °F    
Average Humidity 68    
Maximum Humidity 83    
Minimum Humidity 52    
Precipitation  
Precipitation 0.00 in - - ()
Sea Level Pressure  
Sea Level Pressure 29.85 in    
Wind  
Wind Speed 18 mph (SSW)    
Max Wind Speed 29 mph    
Max Gust Speed 40 mph    
Visibility 8 miles    
Events      
Averages and records for this station are not official NWS values.
T = Trace of Precipitation, MM = Missing Value Source: NWS Daily Summary

Daily Weather History Graph

Daily Weather History Graph

Search for Another Location

Airport or City:

Trip Planner

Search our weather history database for the weather conditions in past years. The results will help you decide how hot, cold, wet, or windy it might be!

Date:

Astronomy

Nov. 22, 2012 Rise Set
Actual Time 7:50 AM EST 5:13 PM EST
Civil Twilight 7:18 AM EST 5:45 PM EST
Nautical Twilight 6:42 AM EST 6:20 PM EST
Astronomical Twilight 6:08 AM EST 6:54 PM EST
Moon 2:08 PM EST (11/22) 1:59 AM EST (11/22)
Length of Visible Light 10h 26m
Length of Day
9h 23m
Waxing Gibbous, 71% of the Moon is Illuminated
Nov 22
Waxing Gibbous
Nov 28
Full
Dec 6
Last Quarter
Dec 13
New
Dec 20
First Quarter

Hourly Weather History & Observations

Time (EST) Temp. Dew Point Humidity Pressure Visibility Wind Dir Wind Speed Gust Speed Precip Events Conditions
12:15 AM 50.5 °F 40.1 °F 67% 30.02 in 7.0 mi SSW 19.6 mph 28.8 mph N/A   Clear
12:35 AM 50.7 °F 39.0 °F 64% 30.02 in 7.0 mi SSW 18.4 mph 31.1 mph N/A   Clear
12:55 AM 50.5 °F 39.4 °F 66% 30.02 in 7.0 mi SSW 18.4 mph 25.3 mph N/A   Clear
1:15 AM 50.5 °F 39.2 °F 65% 30.01 in 7.0 mi SSW 20.7 mph 26.5 mph N/A   Clear
1:35 AM 50.5 °F 39.9 °F 67% 30.01 in 7.0 mi SSW 19.6 mph 27.6 mph N/A   Clear
1:55 AM 49.3 °F 39.6 °F 69% 30.01 in 7.0 mi SSW 18.4 mph 24.2 mph N/A   Clear
2:15 AM 48.2 °F 40.5 °F 75% 30.01 in 7.0 mi SSW 18.4 mph 25.3 mph N/A   Clear
2:35 AM 48.2 °F 41.4 °F 77% 30.02 in 5.0 mi SSW 17.3 mph 25.3 mph N/A   Haze
2:56 AM 48.2 °F 41.4 °F 77% 30.02 in 5.0 mi SW 12.7 mph 24.2 mph N/A   Haze
3:15 AM 48.2 °F 42.1 °F 79% 30.02 in 5.0 mi SSW 12.7 mph 20.7 mph N/A   Haze
3:35 AM 48.2 °F 42.3 °F 80% 30.02 in 5.0 mi SSW 15.0 mph 18.4 mph N/A   Haze
3:55 AM 48.2 °F 43.0 °F 82% 30.01 in 4.0 mi SSW 16.1 mph 21.9 mph N/A   Haze
4:15 AM 48.2 °F 43.2 °F 83% 30.00 in 4.0 mi SSW 15.0 mph 19.6 mph N/A   Haze
4:35 AM 48.2 °F 43.2 °F 83% 29.99 in 4.0 mi SSW 11.5 mph 19.6 mph N/A   Haze
4:55 AM 48.2 °F 42.8 °F 82% 29.99 in 4.0 mi SSW 13.8 mph 20.7 mph N/A   Haze
5:15 AM 48.2 °F 41.9 °F 79% 29.98 in 5.0 mi South 16.1 mph 23.0 mph N/A   Haze
5:35 AM 48.2 °F 41.2 °F 77% 29.97 in 5.0 mi SSW 13.8 mph 21.9 mph N/A   Haze
5:55 AM 48.2 °F 40.6 °F 75% 29.96 in 7.0 mi SSW 13.8 mph 19.6 mph N/A   Clear
6:15 AM 48.2 °F 39.4 °F 72% 29.96 in 7.0 mi SSW 13.8 mph 19.6 mph N/A   Clear
6:35 AM 48.2 °F 39.6 °F 72% 29.95 in 7.0 mi South 12.7 mph 20.7 mph N/A   Clear
6:55 AM 48.2 °F 39.0 °F 71% 29.94 in 7.0 mi South 10.4 mph 18.4 mph N/A   Clear
7:15 AM 48.2 °F 39.2 °F 71% 29.94 in 7.0 mi South 10.4 mph - N/A   Clear
7:35 AM 48.2 °F 40.3 °F 74% 29.94 in 7.0 mi South 9.2 mph - N/A   Clear
7:55 AM 48.2 °F 40.3 °F 74% 29.93 in 5.0 mi South 10.4 mph 23.0 mph N/A   Haze
8:15 AM 48.2 °F 41.2 °F 77% 29.92 in 5.0 mi South 11.5 mph - N/A   Haze
8:35 AM 48.2 °F 41.4 °F 77% 29.92 in 5.0 mi South 11.5 mph - N/A   Haze
8:55 AM 48.2 °F 40.5 °F 75% 29.92 in 5.0 mi South 11.5 mph 16.1 mph N/A   Haze
9:15 AM 49.3 °F 41.4 °F 74% 29.92 in 5.0 mi South 10.4 mph 17.3 mph N/A   Haze
9:36 AM 50.7 °F 41.4 °F 70% 29.91 in 7.0 mi South 18.4 mph 23.0 mph N/A   Clear
9:55 AM 53.1 °F 41.7 °F 65% 29.91 in 7.0 mi SSW 19.6 mph 25.3 mph N/A   Clear
10:15 AM 53.1 °F 40.8 °F 63% 29.90 in 7.0 mi SSW 16.1 mph 24.2 mph N/A   Clear
10:35 AM 54.7 °F 40.3 °F 58% 29.90 in 10.0 mi SSW 18.4 mph 27.6 mph N/A   Clear
10:55 AM 54.1 °F 41.2 °F 62% 29.89 in 10.0 mi SSW 27.6 mph 34.5 mph N/A   Clear
11:15 AM 55.0 °F 41.7 °F 61% 29.88 in 10.0 mi SSW 21.9 mph 28.8 mph N/A   Clear
11:35 AM 55.6 °F 40.1 °F 56% 29.88 in 10.0 mi SSW 20.7 mph 31.1 mph N/A   Clear
11:55 AM 55.6 °F 40.3 °F 56% 29.87 in 10.0 mi SSW 23.0 mph 33.4 mph N/A   Clear
12:15 PM 55.6 °F 40.6 °F 57% 29.86 in 10.0 mi SSW 23.0 mph 34.5 mph N/A   Clear
12:35 PM 55.6 °F 40.3 °F 56% 29.85 in 10.0 mi SSW 23.0 mph 32.2 mph N/A   Mostly Cloudy
12:55 PM 55.6 °F 39.0 °F 54% 29.83 in 10.0 mi SSW 23.0 mph 28.8 mph N/A   Scattered Clouds
1:15 PM 55.9 °F 38.5 °F 52% 29.81 in 10.0 mi SSW 23.0 mph 31.1 mph N/A   Scattered Clouds
1:35 PM 58.1 °F 40.6 °F 52% 29.81 in 10.0 mi South 13.8 mph 25.3 mph N/A   Scattered Clouds
1:55 PM 55.6 °F 40.1 °F 56% 29.79 in 10.0 mi SSW 19.6 mph 33.4 mph N/A   Clear
2:15 PM 55.8 °F 39.7 °F 55% 29.78 in 10.0 mi South 20.7 mph 32.2 mph N/A   Clear
2:35 PM 55.8 °F 39.6 °F 55% 29.77 in 10.0 mi South 25.3 mph 34.5 mph N/A   Scattered Clouds
2:55 PM 55.6 °F 40.5 °F 57% 29.76 in 10.0 mi South 17.3 mph 23.0 mph N/A   Mostly Cloudy
3:15 PM 55.6 °F 40.8 °F 58% 29.75 in 10.0 mi South 16.1 mph 23.0 mph N/A   Mostly Cloudy
3:35 PM 55.6 °F 41.7 °F 60% 29.74 in 10.0 mi South 18.4 mph 25.3 mph N/A   Mostly Cloudy
3:55 PM 55.6 °F 41.2 °F 58% 29.74 in 10.0 mi South 15.0 mph 28.8 mph N/A   Overcast
4:15 PM 55.6 °F 40.5 °F 57% 29.75 in 10.0 mi SSW 19.6 mph 28.8 mph N/A   Overcast
4:35 PM 55.6 °F 39.4 °F 55% 29.74 in 10.0 mi South 20.7 mph 31.1 mph N/A   Overcast
4:55 PM 55.6 °F 39.2 °F 54% 29.73 in 10.0 mi SSW 25.3 mph 40.3 mph N/A   Scattered Clouds
5:15 PM 55.6 °F 39.6 °F 55% 29.73 in 10.0 mi SSW 24.2 mph 38.0 mph N/A   Scattered Clouds
5:35 PM 55.6 °F 40.1 °F 56% 29.73 in 10.0 mi SSW 24.2 mph 38.0 mph N/A   Scattered Clouds
5:55 PM 55.6 °F 40.1 °F 56% 29.73 in 10.0 mi SSW 21.9 mph 36.8 mph N/A   Clear
6:15 PM 55.6 °F 40.5 °F 57% 29.72 in 10.0 mi SSW 24.2 mph 34.5 mph N/A   Clear
6:36 PM 55.6 °F 40.6 °F 57% 29.73 in 10.0 mi SSW 24.2 mph 39.1 mph N/A   Clear
6:55 PM 55.6 °F 41.0 °F 58% 29.72 in 10.0 mi SSW 28.8 mph 36.8 mph N/A   Mostly Cloudy
7:15 PM 55.6 °F 41.9 °F 60% 29.72 in 10.0 mi SSW 24.2 mph 33.4 mph N/A   Mostly Cloudy
7:35 PM 55.6 °F 42.8 °F 62% 29.72 in 10.0 mi SSW 21.9 mph 33.4 mph N/A   Overcast
7:55 PM 53.8 °F 43.3 °F 68% 29.72 in 10.0 mi SSW 25.3 mph 36.8 mph N/A   Overcast
8:15 PM 53.1 °F 44.8 °F 73% 29.72 in 10.0 mi SSW 23.0 mph 39.1 mph N/A   Mostly Cloudy
8:35 PM 53.1 °F 46.0 °F 77% 29.71 in 10.0 mi SSW 25.3 mph 34.5 mph N/A   Scattered Clouds
8:55 PM 53.1 °F 46.6 °F 79% 29.70 in 10.0 mi SSW 25.3 mph 31.1 mph N/A   Mostly Cloudy
9:15 PM 53.1 °F 46.9 °F 80% 29.69 in 10.0 mi SSW 23.0 mph 33.4 mph N/A   Mostly Cloudy
9:35 PM 53.1 °F 46.8 °F 79% 29.68 in 7.0 mi SSW 23.0 mph 29.9 mph N/A   Overcast
9:55 PM 53.1 °F 46.4 °F 78% 29.68 in 7.0 mi SSW 24.2 mph 36.8 mph N/A   Overcast
10:15 PM 53.1 °F 46.0 °F 77% 29.67 in 7.0 mi SSW 26.5 mph 35.7 mph N/A   Overcast
10:35 PM 53.1 °F 46.0 °F 77% 29.66 in 7.0 mi SSW 21.9 mph 33.4 mph N/A   Overcast
10:55 PM 53.1 °F 46.4 °F 78% 29.65 in 7.0 mi SSW 23.0 mph 35.7 mph N/A   Overcast
11:15 PM 53.1 °F 46.4 °F 78% 29.65 in 7.0 mi SSW 21.9 mph 34.5 mph N/A   Overcast
11:35 PM 53.1 °F 46.8 °F 79% 29.63 in 7.0 mi SSW 18.4 mph 25.3 mph N/A   Overcast
11:55 PM 53.1 °F 47.1 °F 80% 29.63 in 7.0 mi SW 23.0 mph 28.8 mph N/A   Overcast